Погода в Рославле

Россия / Смоленская область     53°56′50″N   32°51′24″E
темп.,
°C
ветер,
м/с
пор.,
м/с
влажн.,
%
обл.,
%
осадки,
мм/ч
давл.,
гПа
погр.,
м
7 июля, чт
чт700:00+18вюв3593100 1.1 101092
03:00+18ююз389598 1.8 1010217
06:00+17зюз369740 0.5 1011359
09:00+17з4589100 0.5 1012576
12:00+17зсз4581100 0.0 1014762
15:00+17сз4579100 0.1 1015857
18:00+19сз3573100 0.1 1016870
21:00+15ссз3692100 0.1 1016123
8 июля, пт
пт800:00+13сз2293100 0.0 101726
03:00+13ссз2289100 0.0 101824
06:00+13ссз24889 0.0 101893
09:00+18ссз23696 0.0 1019495
12:00+21сз325690 0.0 10181354
15:00+21сз325499 0.0 10181476
18:00+21сз2364100 0.0 10171112
21:00+17сз227580 0.0 101717
9 июля, сб
сб900:00+14ссз228317 0.0 101715
03:00+12с11885 0.0 101710
06:00+14ссв118680 0.0 101616
09:00+19сз22685 0.0 1016410
12:00+22ссз215380 0.0 10141379
15:00+23сз235138 0.0 10131421
18:00+22зсз346374 0.0 1011743
21:00+17с228122 0.0 101218
10 июля, вс
вс1000:00+16ссв1175100 0.0 101113
03:00+15св117799 0.0 101011
06:00+15всв1183100 0.0 101020
09:00+17св2385100 0.0 1009212
12:00+17ююв1193100 2.7 1009138
15:00+21св2273100 2.8 1009797
18:00+21сз2275100 0.4 1008640
21:00+17сз3494100 1.1 100877
11 июля, пн
пн1100:00+15ссв2599100 5.1 1008143
03:00+15ссз2499100 7.4 1007129
06:00+16ссз2399100 0.8 1006152
09:00+16с3599100 4.7 1005305
12:00+16всв3999100 16.4 1003697
15:00+17юв4798100 23.1 1002466
18:00+16юз4697100 0.9 1003479
21:00+15зюз5996100 0.9 1003631